Regional Weather Roundup
Issued by NWS

Home | Current Version | Previous Version | Graphics & Text | Print | Product List | Glossary On
Versions: 1 2 3 4 5 6 7 8 9 10 11 12 13 14 15 16 17 18 19 20 21 22 23 24 25 26 27 28 29 30 31 32 33 34 35 36 37 38 39 40 41 42 43 44 45 46 47 48 49 50
255
ASUS45 KCYS 201910
RWRWY

WYOMING REGIONAL WEATHER ROUNDUP
NATIONAL WEATHER SERVICE CHEYENNE WY
1200 PM MST FRI JAN 20 2017

NOTE:  "FAIR" INDICATES FEW OR NO CLOUDS BELOW 12,000 FEET
WITH NO SIGNIFICANT WEATHER AND/OR OBSTRUCTIONS TO VISIBILITY.

WYZ001-202000-
YELLOWSTONE NATIONAL PARK

CITY           SKY/WX    TMP DP  RH WIND       PRES   REMARKS
LK YELLOWSTONE   N/A     23  19  85 VRB3      29.45F
W YELLOWSTONE  NOT AVBL

$$
WYZ002>013-054>058-071-098>099-202000-
NORTHERN WYOMING

CITY           SKY/WX    TMP DP  RH WIND       PRES   REMARKS
JACKSON        PTSUNNY   25  23  93 CALM      29.49F
CODY           FAIR      35  19  52 N3        29.43F
GREYBULL       FAIR      32  25  75 CALM      29.45F
WORLAND        PTSUNNY   33  28  81 CALM      29.45F
SHERIDAN       CLOUDY    36  32  85 SW7       29.43F WCI  30
BUFFALO        CLOUDY    35  30  82 N10       29.42F WCI  27
GILLETTE       CLOUDY    33  32  96 W7        29.40F WCI  27
HULETT         CLOUDY    34  32  93 SW3       29.40F
NEWCASTLE      FAIR      34  30  86 NW15      29.38F WCI  24

$$
WYZ014>020-022>026-101>103-202000-
CENTRAL WYOMING

CITY           SKY/WX    TMP DP  RH WIND       PRES   REMARKS
BIG PINEY      FAIR       4   0  83 E5        29.51F WCI  -5
PINEDALE       FAIR       5   1  85 E3        29.51F
DUBOIS         NOT AVBL
LANDER         FAIR      31  19  61 CALM      29.44F
RIVERTON       FAIR      23  16  74 NE3       29.46F
CASPER         CLOUDY    32  29  88 SW9       29.44F WCI  24
DOUGLAS        LGT SNOW  33  30  88 NW17      29.43F FOG     WCI  22

$$
WYZ021-027>030-104>119-202000-
SOUTHERN WYOMING

CITY           SKY/WX    TMP DP  RH WIND       PRES   REMARKS
EVANSTON       FAIR      25  19  78 E3        29.48F
ROCK SPRINGS   FOG       20  16  84 E5        29.52F VSB 1/4 WCI  13
RAWLINS        FAIR      25  18  74 W18       29.48F WCI  11
LARAMIE        CLOUDY    29  20  69 CALM      29.41F
CHEYENNE       CLOUDY    38  21  50 NW12      29.39F WCI  30
TORRINGTON     PTSUNNY   39  30  70 NW18      29.38F WCI  30

$$




USA.gov is the U.S. government's official web portal to all federal, state and local government web resources and services.